Weather History for Molokai, HI

Change the Weather History Date:

Saturday, December 14, 2013

  Actual Average Record
Temperature  
Mean Temperature 72 °F -  
Max Temperature 80 °F 78 °F 85 °F (1977)
Min Temperature 64 °F 65 °F 57 °F (1972)
Cooling Degree Days 7    
Growing Degree Days 22 (Base 50)    
Moisture  
Dew Point 66 °F    
Average Humidity 76    
Maximum Humidity 97    
Minimum Humidity 58    
Precipitation  
Precipitation 0.00 in - - ()
Sea Level Pressure  
Sea Level Pressure 29.99 in    
Wind  
Wind Speed 3 mph (NNE)    
Max Wind Speed 10 mph    
Max Gust Speed -    
Visibility 10 miles    
Events Rain    
Averages and records for this station are not official NWS values.
T = Trace of Precipitation, MM = Missing Value Source: NWS Daily Summary

Daily Weather History Graph

Daily Weather History Graph

Search for Another Location

Airport:

Trip Planner

Search our weather history database for the weather conditions in past years. The results will help you decide how hot, cold, wet, or windy it might be!

Date:

Astronomy

Dec. 14, 2013 Rise Set
Actual Time 6:57 AM HST 5:49 PM HST
Civil Twilight 6:33 AM HST 6:13 PM HST
Nautical Twilight 6:05 AM HST 6:40 PM HST
Astronomical Twilight 5:38 AM HST 7:08 PM HST
Moon 4:08 PM HST (12/14) 4:40 AM HST (12/14)
Length of Visible Light 11h 39m
Length of Day
10h 51m
Waxing Gibbous, 94% of the Moon is Illuminated
Dec 14
Waxing Gibbous
Dec 16
Full
Dec 25
Last Quarter
Jan 1
New
Jan 7
First Quarter

Hourly Weather History & Observations

Time (HST) Temp. Heat Index Dew Point Humidity Pressure Visibility Wind Dir Wind Speed Gust Speed Precip Events Conditions
12:54 AM 70.0 °F - 66.9 °F 90% 30.03 in 10.0 mi Calm Calm - N/A   Clear
1:54 AM 69.1 °F - 66.9 °F 93% 30.01 in 10.0 mi Calm Calm - N/A   Clear
2:54 AM 66.0 °F - 64.9 °F 96% 30.00 in 10.0 mi Calm Calm - N/A   Clear
3:54 AM - - - N/A% 29.98 in 10.0 mi NNE 3.5 mph - N/A   Clear
4:54 AM 64.0 °F - 63.0 °F 96% 29.99 in 10.0 mi Calm Calm - N/A   Clear
5:54 AM 66.9 °F - 66.0 °F 97% 29.99 in 10.0 mi ENE 4.6 mph - N/A   Clear
6:54 AM - - - N/A% 30.00 in 10.0 mi Calm Calm - N/A   Clear
7:54 AM - - - N/A% 30.01 in 10.0 mi North 4.6 mph - N/A   Clear
8:54 AM 75.9 °F - 66.9 °F 74% 30.03 in 10.0 mi North 5.8 mph - N/A   Partly Cloudy
9:54 AM 80.1 °F 81.9 °F 64.9 °F 60% 30.04 in 10.0 mi NNW 6.9 mph - N/A   Partly Cloudy
10:54 AM 80.1 °F 81.7 °F 64.0 °F 58% 30.02 in 10.0 mi NW 6.9 mph - N/A   Partly Cloudy
11:54 AM 79.0 °F - 64.0 °F 60% 29.99 in 10.0 mi NW 5.8 mph - N/A   Scattered Clouds
12:54 PM 79.0 °F - 64.9 °F 62% 29.95 in 10.0 mi ENE 5.8 mph - N/A   Mostly Cloudy
1:54 PM 79.0 °F - 64.9 °F 62% 29.94 in 10.0 mi SSE 10.4 mph - N/A   Mostly Cloudy
2:54 PM 80.1 °F 82.1 °F 66.0 °F 62% 29.92 in 10.0 mi South 8.1 mph - N/A   Clear
3:54 PM 80.1 °F 82.3 °F 66.9 °F 64% 29.92 in 10.0 mi SSE 9.2 mph - N/A   Partly Cloudy
4:54 PM 79.0 °F - 64.0 °F 60% 29.94 in 10.0 mi SE 5.8 mph - N/A   Clear
5:54 PM 75.0 °F - 66.0 °F 73% 29.96 in 10.0 mi SE 6.9 mph - N/A   Clear
6:54 PM 73.9 °F - 64.9 °F 73% 29.97 in 10.0 mi Calm Calm - N/A   Clear
7:54 PM 72.0 °F - 64.0 °F 76% 29.97 in 10.0 mi NE 3.5 mph - N/A   Partly Cloudy
8:54 PM 71.1 °F - 64.9 °F 81% 29.99 in 10.0 mi North 4.6 mph - N/A   Clear
9:54 PM 71.1 °F - 66.0 °F 84% 30.01 in 10.0 mi North 5.8 mph - N/A   Clear
10:54 PM 71.1 °F - 68.0 °F 90% 30.00 in 8.0 mi NNW 4.6 mph - 0.00 in Rain Light Rain
11:54 PM 70.0 °F - 68.0 °F 93% 29.98 in 10.0 mi NNW 3.5 mph - 0.00 in   Clear